Regional Weather Roundup
Issued by NWS Sioux Falls, SD

Home | Current Version | Previous Version | Text Only | Print | Product List | Glossary Off
Versions: 1 2 3 4 5 6 7 8 9 10 11 12 13 14 15 16 17 18 19 20 21 22 23 24 25 26 27 28 29 30 31 32 33 34 35 36 37 38 39 40 41 42 43 44 45 46 47 48 49 50

000
ASUS43 KFSD 301002
RWRFSD

WEATHER ROUNDUP FOR SE SOUTH DAKOTA/SW MINNESOTA/NW IOWA
NATIONAL WEATHER SERVICE SIOUX FALLS SD
500 AM CDT TUE JUN 30 2015

NOTE: "FAIR" INDICATES FEW OR NO CLOUDS BELOW 12,000 FEET WITH NO
SIGNIFICANT WEATHER AND OR OBSTRUCTIONS TO VISIBILITY.


SDZ038>040-050-052>070-301100-
SOUTHEAST SOUTH DAKOTA

CITY           SKY/WX    TMP DP  RH WIND       PRES   REMARKS
BROOKINGS      PTCLDY    59  55  88 W3        29.97R
CHAMBERLAIN    MOCLDY    67  63  86 E5        29.94R
HURON          CLOUDY    67  64  90 NE5       29.94R
MADISON        PTSUNNY   61  61 100 NW5       29.96R
MITCHELL       CLOUDY    68  65  90 CALM      29.94F
SIOUX FALLS    CLOUDY    63  60  90 W5        29.94R
WINNER         CLOUDY    73  55  53 E8G18     29.95R
YANKTON        MOCLDY    66  61  82 CALM      29.94R THUNDER
$$

MNZ071-072-080-081-089-090-097-098-301100-
SOUTHWEST MINNESOTA

CITY           SKY/WX    TMP DP  RH WIND       PRES   REMARKS
FAIRMONT       CLEAR     64  57  77 NW7       29.88R
JACKSON        PTCLDY    63  61  94 NW5       29.91S FOG
MARSHALL       PTCLDY    63  57  82 NW6       29.92R
MONTEVIDEO     CLEAR     63  61  94 CALM      29.91S
PIPESTONE      PTCLDY    61  59  94 CALM      29.94R FOG
REDWOOD FALLS  PTCLDY    64  62  93 N6        29.89R FOG
TRACY          CLOUDY    64  62  96 NW5       29.92R
WINDOM         PTCLDY    63  61  94 CALM      29.91R
WORTHINGTON    CLOUDY    63  57  82 NW7       29.93R
$$

IAZ001>003-012>014-020>022-031-032-NEZ013-014-SDZ071-301100-
NORTHWEST IOWA

CITY           SKY/WX    TMP DP  RH WIND       PRES   REMARKS
DENISON        CLOUDY    63  61  94 CALM      29.89R FOG
ESTHERVILLE    PTCLDY    61  61 100 NW6       29.89R
SIOUX CITY     PTCLDY    63  59  87 CALM      29.91R FOG
SPENCER        CLOUDY    59  58  96 NW6       29.90S FOG
$$

ABBREVIATIONS USED IN REMARKS
   TC - TEMPERATURE IN CELSIUS
  WCI - WIND CHILL INDEX
   HX - HEAT INDEX
  VSB - VISIBILITY



USA.gov is the U.S. government's official web portal to all federal, state and local government web resources and services.